STARLINK-33845, 63495

Orbit data source: Space-Track

STARLINK-33845, 63495 is a payload satellite owned by SpaceX/Seattle (US) in LEO that was launched on Mon, 07 Apr 2025 UTC via an FALCON 9 launch vehicle from the Air Force Western Test Range (AFWTR). Payload-class satellites include a variety of spacecraft equipped with specific instruments for various scientific and technological missions. These include communications satellites like Starlink; space stations such as the ISS; scientific satellites like the Hubble; Earth observation satellites from companies like Planet Labs, Umbra, and HawkEye 360; GPS; miniature CubeSats for education and research; and military/defense satellites.

Loading next visibility...
Identifier
63495, 2025-071C
Orbit
LEO
Country
Flag of USUS
Related business
Manufacturer
SpaceX/Seattle
Mission
Operational Commercial Communications
Bus & Motor
STARLINK V2MO, Unknown motor
Mass
575 kg wet, ~530 kg dry
Launch date (UTC)
2025-04-07 (5 months ago)
Launch vehicle
FALCON 9
Launch site
Air Force Western Test Range (AFWTR)
Object type
Payload
Rocket body
Debris
Shape & HBR
Box + 1 Pan, 14.5 m
Radar Cross Section
41.120 m², Large (>1 m²)

Expand to show TLE details & history
Last TLE update: 1 day ago

TLE from 1 day ago
0 STARLINK-33845
1 63495U 25071C   25257.21931463  .00010662  00000-0  37145-3 0  9990
2 63495  53.1584 239.4602 0001990  86.2222 273.9007 15.30213122 25737
Epoch: 2025-09-14T05:15Z
TLE epoch observation values (Epoch: 2025-09-14T05:15:48.784Z)
Latitude
0.00006°
Longitude
167.06552°
Altitude
475.983 km
Speed
7.629 km/s
True Right ascension
15h 57m 50s
True Declination
0° 00' 00"
Sunlit
Object was in daylight at epoch
Visualization orbit readout
Latitude
Unknown
Longitude
Unknown
Altitude
Unknown
Speed
Unknown
Apparent Right ascension
Unknown
Apparent Declination
Unknown
Sunlit
N/A
Visualization observer readout
Local Sidereal Time
22:04:26
Azimuth
Unknown
Elevation
Unknown
Doppler factor
Unknown
Orbital elements
Apogee altitude
476.796 km
Perigee altitude
474.069 km
Semi-major axis
6,853.57 km
Eccentricity
0.0002
Inclination
53.1584°
RAAN
239.4602°
Arg. of periapsis
86.2222°
True anomaly
273.87795°
Mean anomaly
273.9007°
Eccentric anomaly
273.88932°
Mean motion
3.82532 °/min
Orbital period
94.11 mins
BSTAR
0.00037145
Loading maneuver chart data...
Computing Atmospheric mass density...
Loading historical data...
Loading historical data...
Loading historical data...
Loading historical data...
Loading historical data...
Loading historical data...
Loading historical data...

Documentation

Showing up to 5 results
|